Weather in Farallon

Panama     9°23′20″N   79°46′52″W
temp.,
°C
wind,
m/s
gust,
m/s
humid.,
%
clouds,
%
prec.,
mm/h
press.,
hPa
HPBL,
m
23 october, sat
sat2301:00+25ssw338917 2.3 1010215
04:00+25ssw349016 0.3 1009246
07:00+25s338838 0.9 1011209
10:00+27ssw2376100 0.1 1013494
13:00+27w338083 2.1 1010426
16:00+27sw337990 4.2 1008481
19:00+26s348249 4.5 1010358
22:00+26sse348679 0.0 1011201
24 october, sun
sun2401:00+25sse348734 0.8 1010185
04:00+25s338560 0.0 1009174
07:00+25sse338667 0.0 1011187
10:00+28sse1273100 0.6 1013478
13:00+27e1278100 5.8 1011304
16:00+27se237899 2.5 1009448
19:00+26sse238295 2.8 1011301
22:00+26se2284100 0.0 1013162
25 october, mon
mon2501:00+26ese218389 0.0 1012139
04:00+26ese118274 0.0 1011197
07:00+26se118286 0.2 1013189
10:00+28nnw11759 0.7 1014333
13:00+27wnw227990 4.2 1012474
16:00+27nw1179100 1.4 1010519
19:00+26s1181100 3.6 1012191
22:00+26s228527 0.4 1013184
26 october, tue
tue2601:00+25ssw228768 0.6 1012197
04:00+25sw228573 0.4 1011275
07:00+26ssw228582 0.5 1013310
10:00+27wsw238329 0.6 1014415
13:00+27wnw348055 2.1 1011706
16:00+27wnw3479100 2.4 1009689
19:00+26w2382100 5.6 1010248
22:00+26wsw228395 2.1 1012234
27 october, wed
wed2701:00+25sw128383 5.2 101194
04:00+25ssw128466 3.0 1010121
07:00+26sw1181100 3.4 1012272
10:00+27wsw2278100 0.8 1013468
13:00+28w337399 1.6 1010832
16:00+28wnw3368100 0.2 1008859
19:00+27wsw2270100 0.3 1010613
22:00+26s337998 0.0 1012294